Starlink 5333

operational
NORAD ID: 56507 Int'l Des: 2023-065 Owner: SPXS Country: US Constellation: starlink
LEOCIRCULAR

About Starlink 5333

Description loading...

Live Position

Loading 3D Globe...

Upcoming Passes

Altitude History

Altitude vs Time

uPlot chart will show altitude changes over time

Two-Line Element Set

1 56507U 23065E 25260.07076179 -.00000680 00000-0 -35305-4 0 9997
2 56507 43.0048 35.0674 0001294 271.6089 88.4605 15.02532593130952
Epoch: Sep 17, 2025 • Age: 20 hours

Current Status

Altitude 569.9 km
Velocity 7.58 km/s
Sub-Earth Point -39.11°S, 1.13°E
Launch Date May 14, 2023
Age 2.3 years
Type internet

Technical Details

Classification Payload
Mass 305.00 kg
Dry Mass 290.00 kg
Total Mass 305.00 kg
Length 0.20 m
Diameter 2.80 m
Span 9.00 m
Shape Box + pan
Manufacturer SPXS
Bus Type Starlink
Phase Status In Orbit
Owner/State SPXS/US

Large Constellations

Loading constellations...